| time (UTC) | temp C | wind direction | speed KPH | gust KPH | rain 1hr cm | rain 24hr cm | rain mn cm | humidity % | barometer mb |
| 20260831073121 | 21 | 350 | 3.2 | 6.4 | 0.00 | 0.03 | 0.00 | 93 | 1017.0 |
| 20260831072121 | 21 | 321 | 1.6 | 3.2 | 0.00 | 0.03 | 0.00 | 93 | 1017.0 |
| 20260831071121 | 21 | 360 | 1.6 | 4.8 | 0.00 | 0.03 | 0.00 | 93 | 1017.0 |
| 20260831070121 | 21 | 326 | 3.2 | 4.8 | 0.00 | 0.03 | 0.00 | 93 | 1017.0 |
| 20260831065122 | 21 | 293 | 1.6 | 4.8 | 0.00 | 0.03 | 0.00 | 94 | 1016.9 |
| 20260831064121 | 21 | 24 | 1.6 | 3.2 | 0.00 | 0.03 | 0.00 | 96 | 1016.8 |
| 20260831063142 | 21 | 291 | 0.0 | 4.8 | 0.00 | 0.03 | 0.00 | 96 | 1016.8 |
| 20260831062121 | 21 | 281 | 0.0 | 3.2 | 0.00 | 0.03 | 0.00 | 97 | 1016.8 |
| 20260831061121 | 21 | 282 | 1.6 | 4.8 | 0.00 | 0.03 | 0.00 | 97 | 1016.9 |
| 20260831060121 | 21 | 292 | 1.6 | 4.8 | 0.00 | 0.03 | 0.00 | 97 | 1016.9 |
| 20260831055121 | 21 | 293 | 1.6 | 4.8 | 0.00 | 0.03 | 0.00 | 98 | 1016.9 |
| 20260831054144 | 21 | 292 | 0.0 | 4.8 | 0.00 | 0.03 | 0.00 | 99 | 1016.9 |
| 20260831053121 | 21 | 3 | 0.0 | 3.2 | 0.00 | 0.03 | 0.00 | 99 | 1016.9 |
| 20260831052123 | 22 | 223 | 0.0 | 1.6 | 0.00 | 0.03 | 0.00 | 99 | 1017.0 |
| 20260831051121 | 22 | 262 | 0.0 | 3.2 | 0.00 | 0.03 | 0.00 | 99 | 1017.0 |
| 20260831050122 | 22 | 287 | 0.0 | 3.2 | 0.00 | 0.03 | 0.00 | 99 | 1017.0 |
| 20260831045122 | 22 | 3 | 0.0 | 3.2 | 0.00 | 0.03 | 0.00 | 99 | 1016.9 |
| 20260831044123 | 22 | 311 | 0.0 | 4.8 | 0.00 | 0.03 | 0.00 | 99 | 1016.9 |
| 20260831043122 | 22 | 337 | 0.0 | 1.6 | 0.00 | 0.03 | 0.00 | 99 | 1016.7 |
| 20260831042124 | 22 | 257 | 1.6 | 3.2 | 0.00 | 0.03 | 0.00 | 98 | 1016.6 |
| 20260831041122 | 22 | 299 | 4.8 | 8.0 | 0.00 | 0.03 | 0.00 | 99 | 1016.6 |
| 20260831040122 | 22 | 324 | 4.8 | 8.0 | 0.00 | 0.03 | 0.00 | 99 | 1016.6 |
| 20260831035123 | 22 | 299 | 3.2 | 8.0 | 0.00 | 0.03 | 0.03 | 99 | 1016.6 |
| 20260831034121 | 22 | 301 | 1.6 | 4.8 | 0.00 | 0.03 | 0.03 | 99 | 1016.6 |
| 20260831033121 | 22 | 322 | 3.2 | 4.8 | 0.00 | 0.03 | 0.03 | 99 | 1016.6 |
| 20260831032121 | 22 | 330 | 1.6 | 3.2 | 0.00 | 0.03 | 0.03 | 99 | 1016.5 |
| 20260831031121 | 22 | 337 | 0.0 | 1.6 | 0.00 | 0.03 | 0.03 | 99 | 1016.6 |
| 20260831030121 | 22 | 334 | 0.0 | 1.6 | 0.03 | 0.03 | 0.03 | 99 | 1016.6 |
| 20260831025123 | 22 | 293 | 0.0 | 0.0 | 0.03 | 0.03 | 0.03 | 99 | 1016.9 |
| 20260831024144 | 22 | 337 | 3.2 | 4.8 | 0.03 | 0.03 | 0.03 | 99 | 1017.1 |
| 20260831023122 | 22 | 327 | 3.2 | 6.4 | 0.03 | 0.03 | 0.03 | 99 | 1017.2 |
| 20260831022121 | 22 | 313 | 3.2 | 6.4 | 0.03 | 0.03 | 0.03 | 99 | 1017.2 |
| 20260831021121 | 23 | 317 | 1.6 | 4.8 | 0.03 | 0.03 | 0.03 | 99 | 1017.2 |
| 20260831020144 | 23 | 360 | 0.0 | 3.2 | 0.00 | 0.00 | 0.00 | 99 | 1017.2 |
| 20260831015124 | 23 | 45 | 0.0 | 0.0 | 0.00 | 0.00 | 0.00 | 99 | 1017.2 |
| 20260831014121 | 23 | 314 | 0.0 | 3.2 | 0.00 | 0.00 | 0.00 | 99 | 1017.1 |
| 20260831013121 | 23 | 311 | 1.6 | 6.4 | 0.00 | 0.00 | 0.00 | 99 | 1016.9 |
| 20260831012122 | 23 | 247 | 0.0 | 3.2 | 0.00 | 0.00 | 0.00 | 99 | 1016.8 |
| 20260831011121 | 23 | 247 | 0.0 | 1.6 | 0.00 | 0.00 | 0.00 | 99 | 1016.8 |
| 20260831010122 | 23 | 215 | 0.0 | 3.2 | 0.00 | 0.00 | 0.00 | 99 | 1016.8 |
| 20260831005123 | 23 | 239 | 1.6 | 3.2 | 0.00 | 0.00 | 0.00 | 99 | 1016.6 |
| 20260831004123 | 24 | 243 | 3.2 | 6.4 | 0.00 | 0.00 | 0.00 | 98 | 1016.5 |
| 20260831003143 | 24 | 223 | 1.6 | 6.4 | 0.00 | 0.00 | 0.00 | 96 | 1016.4 |
| 20260831002124 | 24 | 226 | 3.2 | 6.4 | 0.00 | 0.00 | 0.00 | 94 | 1016.2 |
| 20260831001143 | 25 | 259 | 3.2 | 6.4 | 0.00 | 0.00 | 0.00 | 92 | 1016.2 |
| 20260831000122 | 25 | 232 | 1.6 | 4.8 | 0.00 | 0.00 | 0.00 | 91 | 1016.2 |
| 20260830235143 | 25 | 215 | 1.6 | 4.8 | 0.00 | 0.00 | 0.00 | 90 | 1016.1 |
| 20260830234121 | 25 | 251 | 3.2 | 8.0 | 0.00 | 0.00 | 0.00 | 90 | 1016.1 |
| 20260830233121 | 25 | 230 | 1.6 | 6.4 | 0.00 | 0.00 | 0.00 | 90 | 1016.1 |
| 20260830232121 | 25 | 221 | 1.6 | 4.8 | 0.00 | 0.00 | 0.00 | 90 | 1016.0 |
| 20260830231121 | 25 | 240 | 3.2 | 4.8 | 0.00 | 0.00 | 0.00 | 89 | 1016.0 |
| 20260830230121 | 25 | 245 | 1.6 | 4.8 | 0.00 | 0.00 | 0.00 | 89 | 1016.0 |
| 20260830225122 | 25 | 214 | 1.6 | 4.8 | 0.00 | 0.00 | 0.00 | 88 | 1016.0 |
| 20260830224121 | 25 | 224 | 3.2 | 6.4 | 0.00 | 0.00 | 0.00 | 87 | 1015.9 |
| 20260830223121 | 25 | 220 | 3.2 | 8.0 | 0.00 | 0.00 | 0.00 | 87 | 1016.2 |
| 20260830222122 | 26 | 245 | 3.2 | 6.4 | 0.00 | 0.00 | 0.00 | 85 | 1016.2 |
| 20260830221142 | 26 | 251 | 3.2 | 6.4 | 0.00 | 0.00 | 0.00 | 84 | 1016.4 |
| 20260830220122 | 26 | 192 | 3.2 | 6.4 | 0.00 | 0.00 | 0.00 | 83 | 1016.4 |
| 20260830215121 | 26 | 212 | 3.2 | 4.8 | 0.00 | 0.00 | 0.00 | 82 | 1016.2 |
| 20260830214123 | 27 | 221 | 4.8 | 6.4 | 0.00 | 0.00 | 0.00 | 80 | 1016.2 |
| 20260830213142 | 26 | 244 | 3.2 | 8.0 | 0.00 | 0.00 | 0.00 | 81 | 1016.2 |
| 20260830212123 | 26 | 222 | 4.8 | 8.0 | 0.00 | 0.00 | 0.00 | 81 | 1016.2 |
| 20260830211122 | 26 | 244 | 3.2 | 6.4 | 0.00 | 0.00 | 0.00 | 82 | 1016.5 |
| 20260830210124 | 26 | 194 | 4.8 | 8.0 | 0.00 | 0.00 | 0.00 | 83 | 1016.5 |
| 20260830205122 | 26 | 227 | 4.8 | 8.0 | 0.00 | 0.00 | 0.00 | 84 | 1016.5 |
| 20260830204122 | 26 | 228 | 4.8 | 8.0 | 0.00 | 0.00 | 0.00 | 84 | 1016.5 |
| 20260830203123 | 26 | 218 | 4.8 | 9.7 | 0.00 | 0.00 | 0.00 | 84 | 1016.7 |
| 20260830202143 | 26 | 242 | 4.8 | 11.3 | 0.00 | 0.00 | 0.00 | 82 | 1016.7 |
| 20260830201143 | 26 | 185 | 4.8 | 9.7 | 0.00 | 0.00 | 0.00 | 81 | 1016.9 |
| 20260830200122 | 26 | 251 | 4.8 | 11.3 | 0.00 | 0.00 | 0.00 | 81 | 1016.9 |
| 20260830195143 | 26 | 245 | 6.4 | 9.7 | 0.00 | 0.00 | 0.00 | 80 | 1016.8 |
| 20260830194144 | 26 | 205 | 6.4 | 14.5 | 0.00 | 0.00 | 0.00 | 79 | 1017.0 |
| 20260830193121 | 26 | 235 | 4.8 | 9.7 | 0.00 | 0.00 | 0.00 | 80 | 1017.1 |
| 20260830192121 | 25 | 228 | 6.4 | 11.3 | 0.00 | 0.00 | 0.00 | 79 | 1017.4 |
| 20260830191121 | 26 | 295 | 4.8 | 8.0 | 0.00 | 0.00 | 0.00 | 77 | 1017.6 |
| 20260830190121 | 26 | 262 | 4.8 | 8.0 | 0.00 | 0.00 | 0.00 | 77 | 1017.6 |
| 20260830185121 | 25 | 222 | 6.4 | 11.3 | 0.00 | 0.00 | 0.00 | 77 | 1017.8 |
| 20260830184121 | 26 | 247 | 4.8 | 11.3 | 0.00 | 0.00 | 0.00 | 75 | 1017.9 |
| 20260830183124 | 26 | 192 | 4.8 | 12.9 | 0.00 | 0.00 | 0.00 | 74 | 1018.0 |
| 20260830182144 | 26 | 253 | 6.4 | 9.7 | 0.00 | 0.00 | 0.00 | 72 | 1018.2 |
| 20260830181121 | 26 | 254 | 6.4 | 9.7 | 0.00 | 0.00 | 0.00 | 73 | 1018.2 |
| 20260830180122 | 26 | 257 | 6.4 | 11.3 | 0.00 | 0.00 | 0.00 | 71 | 1018.2 |
| 20260830175142 | 26 | 243 | 6.4 | 11.3 | 0.00 | 0.00 | 0.00 | 70 | 1018.2 |
| 20260830174121 | 26 | 234 | 4.8 | 11.3 | 0.00 | 0.00 | 0.00 | 71 | 1018.4 |
| 20260830173121 | 26 | 226 | 6.4 | 12.9 | 0.00 | 0.00 | 0.00 | 72 | 1018.5 |
| 20260830172123 | 27 | 248 | 4.8 | 9.7 | 0.00 | 0.00 | 0.00 | 71 | 1018.5 |
| 20260830171123 | 27 | 232 | 6.4 | 9.7 | 0.00 | 0.00 | 0.00 | 70 | 1018.7 |
| 20260830170123 | 27 | 251 | 6.4 | 12.9 | 0.00 | 0.00 | 0.00 | 70 | 1018.7 |
| 20260830165143 | 28 | 252 | 6.4 | 11.3 | 0.00 | 0.00 | 0.00 | 66 | 1018.8 |
| 20260830164122 | 28 | 220 | 6.4 | 11.3 | 0.00 | 0.00 | 0.00 | 68 | 1018.8 |
| 20260830163122 | 27 | 261 | 8.0 | 14.5 | 0.00 | 0.00 | 0.00 | 68 | 1019.1 |
| 20260830162143 | 27 | 243 | 6.4 | 14.5 | 0.00 | 0.00 | 0.00 | 66 | 1019.1 |
| 20260830161122 | 28 | 247 | 6.4 | 11.3 | 0.00 | 0.00 | 0.00 | 64 | 1019.2 |
| 20260830160124 | 27 | 214 | 6.4 | 9.7 | 0.00 | 0.00 | 0.00 | 66 | 1019.2 |
| 20260830155145 | 27 | 258 | 6.4 | 12.9 | 0.00 | 0.00 | 0.00 | 68 | 1019.2 |
| 20260830154121 | 27 | 250 | 8.0 | 12.9 | 0.00 | 0.00 | 0.00 | 66 | 1019.5 |
| 20260830153121 | 27 | 259 | 6.4 | 11.3 | 0.00 | 0.00 | 0.00 | 65 | 1019.6 |
| 20260830152121 | 26 | 247 | 8.0 | 12.9 | 0.00 | 0.00 | 0.00 | 67 | 1019.7 |
| 20260830151142 | 26 | 243 | 8.0 | 17.7 | 0.00 | 0.00 | 0.00 | 67 | 1019.9 |
| 20260830150142 | 27 | 247 | 8.0 | 12.9 | 0.00 | 0.00 | 0.00 | 64 | 1019.9 |
| 20260830145121 | 27 | 253 | 6.4 | 9.7 | 0.00 | 0.00 | 0.00 | 64 | 1019.8 |
| 20260830144142 | 27 | 258 | 6.4 | 12.9 | 0.00 | 0.00 | 0.00 | 63 | 1019.9 |
| 20260830143142 | 27 | 254 | 6.4 | 11.3 | 0.00 | 0.00 | 0.00 | 60 | 1019.9 |
| 20260830142121 | 26 | 260 | 6.4 | 14.5 | 0.00 | 0.00 | 0.00 | 57 | 1020.0 |
| 20260830141121 | 26 | 246 | 6.4 | 14.5 | 0.00 | 0.00 | 0.00 | 58 | 1020.2 |
| 20260830140121 | 26 | 226 | 6.4 | 11.3 | 0.00 | 0.00 | 0.00 | 61 | 1020.2 |
| 20260830135121 | 26 | 261 | 6.4 | 9.7 | 0.00 | 0.00 | 0.00 | 63 | 1020.4 |
| 20260830134122 | 25 | 229 | 6.4 | 11.3 | 0.00 | 0.00 | 0.00 | 63 | 1020.5 |
| 20260830133123 | 25 | 257 | 6.4 | 11.3 | 0.00 | 0.00 | 0.00 | 65 | 1020.6 |
| 20260830132125 | 25 | 249 | 6.4 | 11.3 | 0.00 | 0.00 | 0.00 | 67 | 1020.6 |
| 20260830131123 | 25 | 267 | 6.4 | 11.3 | 0.00 | 0.00 | 0.00 | 67 | 1020.6 |
| 20260830130122 | 23 | 234 | 6.4 | 11.3 | 0.00 | 0.00 | 0.00 | 69 | 1020.6 |
| 20260830125122 | 23 | 217 | 4.8 | 8.0 | 0.00 | 0.00 | 0.00 | 71 | 1020.7 |
| 20260830124122 | 22 | 250 | 3.2 | 4.8 | 0.00 | 0.00 | 0.00 | 77 | 1020.9 |
| 20260830123122 | 22 | 268 | 4.8 | 8.0 | 0.00 | 0.00 | 0.00 | 75 | 1020.9 |
| 20260830122122 | 22 | 213 | 3.2 | 8.0 | 0.00 | 0.00 | 0.00 | 78 | 1020.8 |
| 20260830121122 | 21 | 247 | 3.2 | 6.4 | 0.00 | 0.00 | 0.00 | 83 | 1020.8 |
| 20260830120143 | 21 | 247 | 0.0 | 3.2 | 0.00 | 0.00 | 0.00 | 88 | 1020.8 |
| 20260830115143 | 20 | 180 | 0.0 | 0.0 | 0.00 | 0.00 | 0.00 | 93 | 1020.7 |
| 20260830114121 | 20 | 225 | 0.0 | 0.0 | 0.00 | 0.00 | 0.00 | 93 | 1020.7 |
| 20260830113121 | 19 | 154 | 0.0 | 3.2 | 0.00 | 0.00 | 0.00 | 95 | 1020.7 |
| 20260830112121 | 17 | 169 | 0.0 | 3.2 | 0.00 | 0.00 | 0.00 | 99 | 1020.7 |
| 20260830111121 | 17 | 203 | 0.0 | 0.0 | 0.00 | 0.00 | 0.00 | 99 | 1020.7 |
| 20260830110121 | 17 | 203 | 0.0 | 0.0 | 0.00 | 0.00 | 0.00 | 99 | 1020.7 |
| 20260830105122 | 17 | 203 | 0.0 | 0.0 | 0.00 | 0.00 | 0.00 | 99 | 1020.6 |
| 20260830104121 | 17 | 270 | 0.0 | 0.0 | 0.00 | 0.00 | 0.00 | 99 | 1020.5 |
| 20260830103121 | 17 | 180 | 0.0 | 0.0 | 0.00 | 0.00 | 0.00 | 99 | 1020.6 |
| 20260830102121 | 17 | 113 | 0.0 | 0.0 | 0.00 | 0.00 | 0.00 | 98 | 1020.5 |
| 20260830101122 | 17 | 270 | 0.0 | 0.0 | 0.00 | 0.00 | 0.00 | 98 | 1020.5 |
| 20260830100142 | 17 | 203 | 0.0 | 0.0 | 0.00 | 0.00 | 0.00 | 97 | 1020.5 |
| 20260830095121 | 17 | 113 | 0.0 | 0.0 | 0.00 | 0.00 | 0.00 | 95 | 1020.6 |
| 20260830094144 | 17 | 180 | 0.0 | 0.0 | 0.00 | 0.00 | 0.00 | 95 | 1020.7 |
| 20260830093121 | 17 | 180 | 0.0 | 0.0 | 0.00 | 0.00 | 0.00 | 97 | 1020.6 |
| 20260830092121 | 17 | 113 | 0.0 | 0.0 | 0.00 | 0.00 | 0.00 | 94 | 1020.6 |
| 20260830091142 | 18 | 158 | 0.0 | 0.0 | 0.00 | 0.00 | 0.00 | 95 | 1020.6 |
| 20260830090123 | 18 | 270 | 0.0 | 4.8 | 0.00 | 0.00 | 0.00 | 95 | 1020.6 |
| 20260830085122 | 18 | 265 | 1.6 | 4.8 | 0.00 | 0.00 | 0.00 | 95 | 1020.7 |
| 20260830084121 | 18 | 270 | 1.6 | 6.4 | 0.00 | 0.00 | 0.00 | 95 | 1020.8 |
| 20260830083122 | 18 | 219 | 1.6 | 3.2 | 0.00 | 0.00 | 0.00 | 95 | 1020.8 |
| 20260830082144 | 18 | 252 | 1.6 | 6.4 | 0.00 | 0.00 | 0.00 | 95 | 1020.7 |
| 20260830081122 | 18 | 250 | 3.2 | 6.4 | 0.00 | 0.00 | 0.00 | 95 | 1021.0 |
| 20260830080122 | 18 | 245 | 1.6 | 4.8 | 0.00 | 0.00 | 0.00 | 95 | 1021.0 |
| 20260830075123 | 18 | 243 | 1.6 | 6.4 | 0.00 | 0.00 | 0.00 | 95 | 1020.9 |
| 20260830074125 | 18 | 240 | 1.6 | 6.4 | 0.00 | 0.00 | 0.00 | 95 | 1021.0 |